This demonstration page uses our WeatherBlox Daily Observations layout. Learn more.

Left ArrowRight Arrow

39.08367, -84.50855

Hourly Observations for December 11, 2019

Temp ( °F °C ) Dew Point ( °F °C ) Humidity (%) Winds ( mph kmh ) Pressure ( in mb ) Visibility ( mi km ) Precip ( " mm )
12:53 am 00:53 Clear 24 -4.4 13 -10.6 62 62 WSW 10 17 30.42 1030 10 16 N/A
1:53 am 01:53 Clear 23 -5 13 -10.6 65 65 WSW 7 11 30.43 1031 10 16 N/A
2:53 am 02:53 Clear 23 -5 14 -10 68 68 W 8 13 30.44 1031 10 16 N/A
3:53 am 03:53 Clear 18 -7.8 13 -10.6 81 81 S 7 11 30.45 1031 10 16 N/A
4:53 am 04:53 Clear 18 -7.8 13 -10.6 81 81 SSW 7 11 30.45 1031 10 16 N/A
5:53 am 05:53 Cloudy 21 -6.1 15 -9.4 78 78 SW 6 9 30.48 1032 10 16 N/A
6:53 am 06:53 Clear 20 -6.7 14 -10 78 78 S 5 7 30.49 1032 10 16 N/A
7:53 am 07:53 Sunny 19 -7.2 14 -10 81 81 N N/A 30.46 1031 10 16 N/A
8:53 am 08:53 Sunny 22 -5.6 17 -8.3 82 82 S 7 11 30.47 1032 10 16 N/A
9:53 am 09:53 Sunny 27 -2.8 19 -7.2 72 72 S 10 17 30.48 1032 10 16 N/A
10:53 am 10:53 Mostly Cloudy 31 -0.6 17 -8.3 56 56 SSW 14 22 30.51 1033 10 16 N/A
11:53 am 11:53 Cloudy 32 undefined 18 -7.8 56 56 SW 14 22 30.51 1033 10 16 N/A
12:53 pm 12:53 Cloudy 34 1.1 19 -7.2 54 54 SW 10 17 30.51 1033 10 16 N/A
1:53 pm 13:53 Cloudy 35 1.7 18 -7.8 50 50 SW 13 20 30.50 1033 10 16 N/A
2:53 pm 14:53 Cloudy 37 2.8 15 -9.4 41 41 WSW 15 24 30.51 1033 10 16 N/A
3:53 pm 15:53 Partly Cloudy 38 3.3 17 -8.3 43 43 WSW 7 11 30.52 1034 10 16 N/A
4:53 pm 16:53 Mostly Cloudy 36 2.2 17 -8.3 46 46 W 6 9 30.54 1034 10 16 N/A
5:53 pm 17:53 Clear 34 1.1 16 -8.9 48 48 N N/A 30.55 1035 10 16 N/A
6:53 pm 18:53 Clear 28 -2.2 18 -7.8 66 66 NE 5 7 30.56 1035 10 16 N/A
7:53 pm 19:53 Clear 27 -2.8 19 -7.2 72 72 N N/A 30.58 1036 10 16 N/A
8:53 pm 20:53 Clear 26 -3.3 20 -6.7 78 78 ENE 3 6 30.59 1036 10 16 N/A
9:53 pm 21:53 Clear 25 -3.9 20 -6.7 81 81 NE 3 6 30.60 1036 10 16 N/A
10:53 pm 22:53 Clear 24 -4.4 20 -6.7 84 84 N N/A 30.60 1036 10 16 N/A
11:53 pm 23:53 Clear 22 -5.6 20 -6.7 92 92 N N/A 30.58 1036 10 16 N/A

Powered by AerisWeather